Weather in Malyy Zelenchuk

Russia / Karachay-Cherkess Republic     44°09′48″N   41°51′56″E
temp.,
°C
wind,
m/s
gust,
m/s
humid.,
%
clouds,
%
prec.,
mm/h
press.,
hPa
HPBL,
m
13 may, thu
thu1300:00+8s33900 0.0 101329
03:00+7ssw33570 0.0 101329
06:00+9ssw33640 0.0 101442
09:00+18sse11470 0.0 1013307
12:00+22ene44441 0.0 1013728
15:00+22ene56525 0.0 1013995
18:00+19ene487513 0.0 1013336
21:00+14se1289100 0.0 101414
14 may, fri
fri1400:00+13s33874 0.0 101335
03:00+12s45505 0.0 101345
06:00+12s45580 0.0 101354
09:00+23s22462 0.0 1012233
12:00+27e34390 0.0 1011633
15:00+27e56500 0.0 1010913
18:00+23ene37746 0.0 1011239
21:00+17s33849 0.0 101222
15 may, sat
sat1500:00+15s3371100 0.0 101227
03:00+15sw335799 0.0 101336
06:00+15sw33683 0.0 101438
09:00+22wnw23691 0.0 1014544
12:00+24n33641 0.0 1014998
15:00+25nne55640 0.0 10131183
18:00+22ne2378100 1.3 101353
21:00+17s3388100 4.3 101346
16 may, sun
sun1600:00+14s338314 0.3 101233
03:00+13s3382100 0.3 101129
06:00+14ssw3382100 0.0 101147
09:00+21se116010 0.0 1009400
12:00+24e44595 0.0 10081005
15:00+25e67622 0.0 10061294
18:00+22ene597729 0.0 1005579
21:00+17se1289100 0.0 100514
17 may, mon
mon1700:00+16sse2289100 0.0 100517
03:00+15ssw337738 0.0 100528
06:00+15s34745 0.0 100558
09:00+24ssw12555 0.0 1005341
12:00+26n445752 0.0 1004986
15:00+19nw2392100 5.8 100789
18:00+16sw3690100 2.4 1009183
21:00+14sse338676 2.4 101032